Simultaneous Nadir Overpasses (SNOs) Predictions

Prediction of SNOs between FY3D and AQUA Satellite Orbit:

Table of predicted SNOs for the next 14.0 days since TLE Epoch: 1/23/2022
Index Date (FY3D) Time (FY3D) Lat,Lon (FY3D) SZA (FY3D ) Date (AQUA) Time (AQUA) Lat,Lon (AQUA) SZA (AQUA ) Distance(km) Time Diff (sec)
1 01/23/2022 03:09:52 70.16, 133.41 89.53 01/23/2022 03:08:48 70.16, 133.39 89.53 0.91 64
2 01/25/2022 17:02:37 -78.69, 0.86 68.30 01/25/2022 17:03:50 -79.34, -1.96 67.98 93.83 73
3 01/25/2022 17:46:56 72.24, -89.31 91.06 01/25/2022 17:47:01 72.24, -89.36 91.06 1.80 5
4 01/25/2022 18:36:59 -70.05, 81.81 91.23 01/25/2022 18:35:46 -70.05, 81.81 91.23 0.12 73
5 01/28/2022 08:23:57 74.10, 47.47 92.39 01/28/2022 08:25:11 74.12, 47.42 92.40 3.10 74
6 01/28/2022 09:14:02 -72.07,-140.76 89.80 01/28/2022 09:13:58 -72.08,-140.81 89.79 1.91 4
7 01/28/2022 09:58:24 50.79, 45.70 69.59 01/28/2022 09:57:11 50.60, 44.73 69.24 71.40 73
8 01/30/2022 23:51:07 -74.13, -4.38 88.29 01/30/2022 23:52:11 -74.12, -4.32 88.31 2.18 64
9 01/31/2022 00:41:16 72.28, 167.07 89.71 01/31/2022 00:41:03 72.28, 167.10 89.71 1.09 13
10 02/02/2022 15:18:05 73.60, -54.85 90.39 02/02/2022 15:19:01 73.61, -54.92 90.38 2.12 56
11 02/02/2022 16:08:16 -71.87, 116.10 91.48 02/02/2022 16:07:54 -71.87, 116.08 91.48 0.68 22
12 02/05/2022 06:45:18 -73.79,-107.08 90.20 02/05/2022 06:46:04 -73.79,-107.05 90.21 0.89 46



Historial Predications of SNOs between FY3D and AQUA
